Time,TemperatureF,DewpointF,PressureIn,WindDirection,WindDirectionDegrees,WindSpeedMPH,WindSpeedGustMPH,Humidity,HourlyPrecipIn,Conditions,Clouds,dailyrainin,SoftwareType,DateUTC
2013-09-16 00:00:00,52.8,50.2,30.08,SSW,208,0.0,0.0,91,0.00,,,0.00,Wunderground v.1.15,2013-09-16 04:00:00,
2013-09-16 00:05:00,52.8,50.2,30.08,SSW,208,0.0,0.0,91,0.00,,,0.00,Wunderground v.1.15,2013-09-16 04:05:00,
2013-09-16 00:10:00,52.9,50.6,30.08,SSW,208,0.0,0.0,92,0.00,,,0.00,Wunderground v.1.15,2013-09-16 04:10:00,
2013-09-16 00:15:00,53.0,50.7,30.08,SSW,208,0.0,0.0,92,0.00,,,0.00,Wunderground v.1.15,2013-09-16 04:15:00,
2013-09-16 00:20:00,53.1,50.8,30.08,SSW,208,0.0,0.0,92,0.00,,,0.00,Wunderground v.1.15,2013-09-16 04:20:00,
2013-09-16 00:25:00,53.1,50.8,30.08,SSW,208,0.0,0.0,92,0.00,,,0.00,Wunderground v.1.15,2013-09-16 04:25:00,
2013-09-16 00:30:00,53.1,50.8,30.07,SSW,208,0.0,0.0,92,0.00,,,0.00,Wunderground v.1.15,2013-09-16 04:30:00,
2013-09-16 00:35:00,53.2,50.6,30.08,SSW,208,0.0,0.0,91,0.00,,,0.00,Wunderground v.1.15,2013-09-16 04:35:00,
2013-09-16 00:40:00,53.2,50.6,30.08,SSW,208,0.0,0.0,91,0.00,,,0.00,Wunderground v.1.15,2013-09-16 04:40:00,
2013-09-16 00:45:00,53.2,50.6,30.07,SSW,208,0.0,0.0,91,0.00,,,0.00,Wunderground v.1.15,2013-09-16 04:45:00,
2013-09-16 00:50:00,53.2,50.6,30.07,SSW,208,0.0,0.0,91,0.00,,,0.00,Wunderground v.1.15,2013-09-16 04:50:00,
2013-09-16 00:55:00,53.2,50.6,30.08,SSW,208,0.0,0.0,91,0.00,,,0.00,Wunderground v.1.15,2013-09-16 04:55:00,
2013-09-16 01:00:00,53.3,50.7,30.08,SSW,208,0.0,0.0,91,0.00,,,0.00,Wunderground v.1.15,2013-09-16 05:00:00,
2013-09-16 01:05:00,53.4,50.8,30.07,SSW,208,0.0,0.0,91,0.00,,,0.00,Wunderground v.1.15,2013-09-16 05:05:00,
2013-09-16 01:10:00,53.4,50.8,30.08,SSW,208,0.0,0.0,91,0.00,,,0.00,Wunderground v.1.15,2013-09-16 05:10:00,
2013-09-16 01:15:00,53.4,50.8,30.07,SSW,208,0.0,0.0,91,0.00,,,0.00,Wunderground v.1.15,2013-09-16 05:15:00,
2013-09-16 01:20:00,53.4,50.8,30.07,SSW,208,0.0,0.0,91,0.00,,,0.00,Wunderground v.1.15,2013-09-16 05:20:00,
2013-09-16 01:25:00,53.3,50.7,30.07,SSW,208,0.0,0.0,91,0.00,,,0.00,Wunderground v.1.15,2013-09-16 05:25:00,
2013-09-16 01:30:00,53.2,50.6,30.07,SSW,208,0.0,0.0,91,0.00,,,0.00,Wunderground v.1.15,2013-09-16 05:30:00,
2013-09-16 01:35:00,53.2,50.6,30.08,SSW,208,0.0,0.0,91,0.00,,,0.00,Wunderground v.1.15,2013-09-16 05:35:00,
2013-09-16 01:40:00,53.3,51.0,30.08,SSW,208,0.0,0.0,92,0.00,,,0.00,Wunderground v.1.15,2013-09-16 05:40:00,
2013-09-16 01:45:00,53.3,51.0,30.07,SSW,208,0.0,0.0,92,0.00,,,0.00,Wunderground v.1.15,2013-09-16 05:45:00,
2013-09-16 01:50:00,53.3,51.0,30.08,SSW,208,0.0,0.0,92,0.00,,,0.00,Wunderground v.1.15,2013-09-16 05:50:00,
2013-09-16 01:55:00,53.4,51.1,30.08,SSW,208,0.0,0.0,92,0.00,,,0.00,Wunderground v.1.15,2013-09-16 05:55:00,
2013-09-16 02:00:00,53.4,51.1,30.08,SSW,208,0.0,0.0,92,0.00,,,0.00,Wunderground v.1.15,2013-09-16 06:00:00,
2013-09-16 02:05:00,53.4,51.1,30.07,SSW,208,0.0,0.0,92,0.00,,,0.00,Wunderground v.1.15,2013-09-16 06:05:00,
2013-09-16 02:10:00,53.4,51.1,30.07,SSW,208,0.0,0.0,92,0.00,,,0.00,Wunderground v.1.15,2013-09-16 06:10:00,
2013-09-16 02:15:00,53.3,51.0,30.07,SSW,208,0.0,0.0,92,0.00,,,0.00,Wunderground v.1.15,2013-09-16 06:15:00,
2013-09-16 02:20:00,53.3,51.0,30.07,SSW,208,0.0,0.0,92,0.00,,,0.00,Wunderground v.1.15,2013-09-16 06:20:00,
2013-09-16 02:25:00,53.3,51.0,30.07,SSW,208,0.0,0.0,92,0.00,,,0.00,Wunderground v.1.15,2013-09-16 06:25:00,
2013-09-16 02:30:00,53.2,50.9,30.07,SSW,208,0.0,0.0,92,0.00,,,0.00,Wunderground v.1.15,2013-09-16 06:30:00,
2013-09-16 02:35:00,53.2,50.9,30.07,SSW,208,0.0,0.0,92,0.00,,,0.00,Wunderground v.1.15,2013-09-16 06:35:00,
2013-09-16 02:40:00,53.2,50.9,30.07,SSW,208,0.0,0.0,92,0.00,,,0.00,Wunderground v.1.15,2013-09-16 06:40:00,
2013-09-16 02:45:00,53.1,51.1,30.06,SSW,208,0.0,0.0,93,0.00,,,0.00,Wunderground v.1.15,2013-09-16 06:45:00,
2013-09-16 02:50:00,53.2,51.2,30.05,SSW,208,0.0,0.0,93,0.00,,,0.00,Wunderground v.1.15,2013-09-16 06:50:00,
2013-09-16 02:55:00,53.2,51.2,30.06,SSW,208,0.0,0.0,93,0.00,,,0.00,Wunderground v.1.15,2013-09-16 06:55:00,
2013-09-16 03:00:00,53.2,51.2,30.06,SSW,208,0.0,0.0,93,0.00,,,0.00,Wunderground v.1.15,2013-09-16 07:00:00,
2013-09-16 03:05:00,53.2,51.2,30.06,SSW,208,0.0,0.0,93,0.00,,,0.00,Wunderground v.1.15,2013-09-16 07:05:00,
2013-09-16 03:10:00,53.3,51.3,30.06,SSW,208,0.0,0.0,93,0.00,,,0.00,Wunderground v.1.15,2013-09-16 07:10:00,
2013-09-16 03:15:00,53.2,50.9,30.06,SSW,208,0.0,0.0,92,0.00,,,0.00,Wunderground v.1.15,2013-09-16 07:15:00,
2013-09-16 03:20:00,53.3,51.3,30.06,SSW,208,0.0,0.0,93,0.00,,,0.00,Wunderground v.1.15,2013-09-16 07:20:00,
2013-09-16 03:25:00,53.3,51.0,30.06,SSW,208,0.0,0.0,92,0.00,,,0.00,Wunderground v.1.15,2013-09-16 07:25:00,
2013-09-16 03:30:00,53.4,51.1,30.07,SSW,208,0.0,0.0,92,0.00,,,0.00,Wunderground v.1.15,2013-09-16 07:30:00,
2013-09-16 03:35:00,53.4,51.4,30.07,SSW,208,0.0,0.0,93,0.00,,,0.00,Wunderground v.1.15,2013-09-16 07:35:00,
2013-09-16 03:40:00,53.5,51.2,30.07,SSW,208,0.0,0.0,92,0.00,,,0.00,Wunderground v.1.15,2013-09-16 07:40:00,
2013-09-16 03:45:00,53.4,50.8,30.08,SSW,208,0.0,0.0,91,0.00,,,0.00,Wunderground v.1.15,2013-09-16 07:45:00,
2013-09-16 03:50:00,53.3,50.4,30.07,SSW,208,0.0,0.0,90,0.00,,,0.00,Wunderground v.1.15,2013-09-16 07:50:00,
2013-09-16 03:55:00,53.3,50.4,30.08,SSW,208,0.0,0.0,90,0.00,,,0.00,Wunderground v.1.15,2013-09-16 07:55:00,
2013-09-16 04:00:00,53.4,50.5,30.08,SSW,208,0.0,0.0,90,0.00,,,0.00,Wunderground v.1.15,2013-09-16 08:00:00,
2013-09-16 04:05:00,53.5,50.6,30.08,SSW,208,0.0,0.0,90,0.00,,,0.00,Wunderground v.1.15,2013-09-16 08:05:00,
2013-09-16 04:10:00,53.6,50.7,30.08,SSW,208,0.0,0.0,90,0.00,,,0.00,Wunderground v.1.15,2013-09-16 08:10:00,
2013-09-16 04:20:00,53.8,50.6,30.08,SSW,208,0.0,0.0,89,0.00,,,0.00,Wunderground v.1.15,2013-09-16 08:20:00,
2013-09-16 04:25:00,54.4,50.9,30.09,SSW,208,0.0,0.0,88,0.00,,,0.00,Wunderground v.1.15,2013-09-16 08:25:00,
2013-09-16 04:30:00,54.8,51.3,30.09,WNW,301,0.0,2.0,88,0.00,,,0.00,Wunderground v.1.15,2013-09-16 08:30:00,
2013-09-16 04:35:00,54.9,51.1,30.09,WNW,300,0.0,2.0,87,0.00,,,0.00,Wunderground v.1.15,2013-09-16 08:35:00,
2013-09-16 04:40:00,55.1,51.6,30.09,WNW,291,1.0,1.0,88,0.00,,,0.00,Wunderground v.1.15,2013-09-16 08:40:00,
2013-09-16 04:45:00,55.2,52.0,30.09,WNW,291,0.0,1.0,89,0.00,,,0.00,Wunderground v.1.15,2013-09-16 08:45:00,
2013-09-16 04:50:00,55.2,52.0,30.08,WNW,291,0.0,0.0,89,0.00,,,0.00,Wunderground v.1.15,2013-09-16 08:50:00,
2013-09-16 04:55:00,55.2,52.3,30.08,WNW,291,0.0,0.0,90,0.00,,,0.01,Wunderground v.1.15,2013-09-16 08:55:00,
2013-09-16 05:00:00,55.1,52.5,30.08,WNW,291,0.0,0.0,91,0.00,,,0.01,Wunderground v.1.15,2013-09-16 09:00:00,
2013-09-16 05:05:00,54.9,52.3,30.08,WNW,291,0.0,0.0,91,0.00,,,0.01,Wunderground v.1.15,2013-09-16 09:05:00,
2013-09-16 05:10:00,54.8,52.5,30.08,WNW,291,0.0,0.0,92,0.00,,,0.01,Wunderground v.1.15,2013-09-16 09:10:00,
2013-09-16 05:15:00,54.7,52.4,30.08,WNW,291,0.0,0.0,92,0.00,,,0.02,Wunderground v.1.15,2013-09-16 09:15:00,
2013-09-16 05:20:00,54.6,52.3,30.08,WNW,291,0.0,0.0,92,0.00,,,0.02,Wunderground v.1.15,2013-09-16 09:20:00,
2013-09-16 05:25:00,54.4,52.4,30.08,WNW,291,0.0,0.0,93,0.00,,,0.02,Wunderground v.1.15,2013-09-16 09:25:00,
2013-09-16 05:30:00,54.3,52.3,30.07,WNW,291,0.0,0.0,93,0.00,,,0.02,Wunderground v.1.15,2013-09-16 09:30:00,
2013-09-16 05:35:00,54.2,52.2,30.08,WNW,291,0.0,0.0,93,0.00,,,0.02,Wunderground v.1.15,2013-09-16 09:35:00,
2013-09-16 05:40:00,54.1,52.1,30.08,WNW,291,0.0,0.0,93,0.00,,,0.03,Wunderground v.1.15,2013-09-16 09:40:00,
2013-09-16 05:45:00,54.0,52.3,30.08,WNW,291,0.0,0.0,94,0.00,,,0.03,Wunderground v.1.15,2013-09-16 09:45:00,
2013-09-16 05:50:00,54.0,52.3,30.08,WNW,291,0.0,0.0,94,0.00,,,0.03,Wunderground v.1.15,2013-09-16 09:50:00,
2013-09-16 05:55:00,53.9,52.2,30.08,WNW,291,0.0,0.0,94,0.00,,,0.03,Wunderground v.1.15,2013-09-16 09:55:00,
2013-09-16 06:00:00,53.8,52.1,30.08,WNW,291,0.0,0.0,94,0.00,,,0.03,Wunderground v.1.15,2013-09-16 10:00:00,
2013-09-16 06:05:00,53.8,52.1,30.08,WNW,291,0.0,0.0,94,0.00,,,0.03,Wunderground v.1.15,2013-09-16 10:05:00,
2013-09-16 06:10:00,53.7,52.0,30.09,WNW,291,0.0,0.0,94,0.00,,,0.03,Wunderground v.1.15,2013-09-16 10:10:00,
2013-09-16 06:15:00,53.7,52.0,30.09,WNW,291,0.0,0.0,94,0.00,,,0.03,Wunderground v.1.15,2013-09-16 10:15:00,
2013-09-16 06:20:00,53.7,52.0,30.09,WNW,291,0.0,0.0,94,0.00,,,0.03,Wunderground v.1.15,2013-09-16 10:20:00,
2013-09-16 06:25:00,53.7,52.0,30.09,WNW,296,0.0,0.0,94,0.00,,,0.03,Wunderground v.1.15,2013-09-16 10:25:00,
2013-09-16 06:30:00,53.6,51.9,30.09,WNW,296,0.0,0.0,94,0.00,,,0.04,Wunderground v.1.15,2013-09-16 10:30:00,
2013-09-16 06:35:00,53.5,51.8,30.09,WNW,296,0.0,0.0,94,0.00,,,0.04,Wunderground v.1.15,2013-09-16 10:35:00,
2013-09-16 06:40:00,53.5,51.8,30.09,WNW,296,0.0,0.0,94,0.00,,,0.04,Wunderground v.1.15,2013-09-16 10:40:00,
2013-09-16 06:45:00,53.5,51.8,30.09,WNW,296,0.0,0.0,94,0.00,,,0.04,Wunderground v.1.15,2013-09-16 10:45:00,
2013-09-16 06:50:00,53.5,51.8,30.09,WNW,296,0.0,0.0,94,0.00,,,0.04,Wunderground v.1.15,2013-09-16 10:50:00,
2013-09-16 06:55:00,53.4,51.7,30.09,WNW,296,0.0,0.0,94,0.00,,,0.04,Wunderground v.1.15,2013-09-16 10:55:00,
2013-09-16 07:00:00,53.4,52.0,30.10,WNW,296,0.0,0.0,95,0.00,,,0.04,Wunderground v.1.15,2013-09-16 11:00:00,
2013-09-16 07:05:00,53.4,52.0,30.10,WNW,296,0.0,0.0,95,0.00,,,0.04,Wunderground v.1.15,2013-09-16 11:05:00,
2013-09-16 07:10:00,53.4,52.0,30.10,WNW,296,0.0,0.0,95,0.00,,,0.04,Wunderground v.1.15,2013-09-16 11:10:00,
2013-09-16 07:15:00,53.4,52.0,30.10,WNW,296,0.0,0.0,95,0.00,,,0.04,Wunderground v.1.15,2013-09-16 11:15:00,
2013-09-16 07:20:00,53.4,52.0,30.10,WNW,296,0.0,0.0,95,0.00,,,0.04,Wunderground v.1.15,2013-09-16 11:20:00,
2013-09-16 07:25:00,53.4,52.0,30.10,WNW,296,0.0,0.0,95,0.00,,,0.04,Wunderground v.1.15,2013-09-16 11:25:00,
2013-09-16 07:30:00,53.4,52.0,30.09,WNW,296,0.0,0.0,95,0.00,,,0.04,Wunderground v.1.15,2013-09-16 11:30:00,
2013-09-16 07:35:00,53.3,51.9,30.09,WNW,296,0.0,0.0,95,0.00,,,0.04,Wunderground v.1.15,2013-09-16 11:35:00,
2013-09-16 07:40:00,53.3,51.9,30.10,WNW,295,0.0,0.0,95,0.00,,,0.04,Wunderground v.1.15,2013-09-16 11:40:00,
2013-09-16 07:45:00,53.4,52.0,30.10,WNW,295,0.0,0.0,95,0.00,,,0.04,Wunderground v.1.15,2013-09-16 11:45:00,
2013-09-16 07:50:00,53.5,52.1,30.10,WNW,295,0.0,0.0,95,0.00,,,0.04,Wunderground v.1.15,2013-09-16 11:50:00,
2013-09-16 07:55:00,53.5,52.1,30.10,WNW,295,0.0,0.0,95,0.00,,,0.04,Wunderground v.1.15,2013-09-16 11:55:00,
2013-09-16 08:00:00,53.6,52.2,30.10,WNW,295,0.0,0.0,95,0.00,,,0.04,Wunderground v.1.15,2013-09-16 12:00:00,
2013-09-16 08:05:00,53.7,52.3,30.10,WNW,295,0.0,0.0,95,0.00,,,0.04,Wunderground v.1.15,2013-09-16 12:05:00,
2013-09-16 08:10:00,53.8,52.4,30.09,WNW,295,0.0,0.0,95,0.00,,,0.04,Wunderground v.1.15,2013-09-16 12:10:00,
2013-09-16 08:15:00,53.9,52.5,30.09,WNW,295,0.0,0.0,95,0.00,,,0.04,Wunderground v.1.15,2013-09-16 12:15:00,
2013-09-16 08:20:00,54.0,52.6,30.09,WNW,295,0.0,0.0,95,0.00,,,0.04,Wunderground v.1.15,2013-09-16 12:20:00,
2013-09-16 08:25:00,54.0,52.9,30.10,WNW,295,0.0,0.0,96,0.00,,,0.04,Wunderground v.1.15,2013-09-16 12:25:00,
2013-09-16 08:35:00,54.3,52.9,30.10,WNW,295,0.0,0.0,95,0.00,,,0.04,Wunderground v.1.15,2013-09-16 12:35:00,
2013-09-16 08:40:00,54.5,53.1,30.10,WNW,295,0.0,0.0,95,0.00,,,0.04,Wunderground v.1.15,2013-09-16 12:40:00,
2013-09-16 08:45:00,54.5,53.1,30.10,WNW,295,0.0,0.0,95,0.00,,,0.04,Wunderground v.1.15,2013-09-16 12:45:00,
2013-09-16 08:50:00,54.6,53.2,30.10,WNW,295,0.0,0.0,95,0.00,,,0.04,Wunderground v.1.15,2013-09-16 12:50:00,
2013-09-16 08:55:00,54.7,53.3,30.10,WNW,295,0.0,0.0,95,0.00,,,0.04,Wunderground v.1.15,2013-09-16 12:55:00,
2013-09-16 09:00:00,55.0,53.6,30.10,WNW,295,0.0,0.0,95,0.00,,,0.04,Wunderground v.1.15,2013-09-16 13:00:00,
2013-09-16 09:05:00,55.3,53.9,30.10,WNW,295,0.0,0.0,95,0.00,,,0.04,Wunderground v.1.15,2013-09-16 13:05:00,
2013-09-16 09:10:00,55.8,54.4,30.10,WNW,295,0.0,0.0,95,0.00,,,0.04,Wunderground v.1.15,2013-09-16 13:10:00,
2013-09-16 09:15:00,56.0,54.6,30.10,WNW,295,0.0,0.0,95,0.00,,,0.04,Wunderground v.1.15,2013-09-16 13:15:00,
2013-09-16 09:20:00,56.1,54.4,30.10,WNW,300,0.0,0.0,94,0.00,,,0.04,Wunderground v.1.15,2013-09-16 13:20:00,
2013-09-16 09:25:00,56.3,54.6,30.10,NW,311,0.0,2.0,94,0.00,,,0.04,Wunderground v.1.15,2013-09-16 13:25:00,
2013-09-16 09:30:00,56.4,54.1,30.10,NW,307,0.0,0.0,92,0.00,,,0.04,Wunderground v.1.15,2013-09-16 13:30:00,
2013-09-16 09:35:00,56.7,54.1,30.10,NNW,333,1.0,1.0,91,0.00,,,0.04,Wunderground v.1.15,2013-09-16 13:35:00,
2013-09-16 09:40:00,57.0,54.4,30.11,WNW,283,2.0,2.0,91,0.00,,,0.04,Wunderground v.1.15,2013-09-16 13:40:00,
2013-09-16 09:45:00,57.2,54.3,30.11,NW,304,1.0,2.0,90,0.00,,,0.04,Wunderground v.1.15,2013-09-16 13:45:00,
2013-09-16 09:50:00,57.3,54.1,30.11,WNW,301,1.0,1.0,89,0.00,,,0.04,Wunderground v.1.15,2013-09-16 13:50:00,
2013-09-16 09:55:00,57.5,54.0,30.11,WNW,301,0.0,1.0,88,0.00,,,0.04,Wunderground v.1.15,2013-09-16 13:55:00,
2013-09-16 10:00:00,57.9,54.7,30.11,NW,316,0.0,1.0,89,0.00,,,0.04,Wunderground v.1.15,2013-09-16 14:00:00,
2013-09-16 10:05:00,58.3,54.8,30.11,WNW,296,1.0,1.0,88,0.00,,,0.04,Wunderground v.1.15,2013-09-16 14:05:00,
2013-09-16 10:10:00,58.6,54.1,30.11,NW,304,0.0,0.0,85,0.00,,,0.04,Wunderground v.1.15,2013-09-16 14:10:00,
2013-09-16 10:15:00,58.5,54.0,30.11,NW,311,1.0,5.0,85,0.00,,,0.04,Wunderground v.1.15,2013-09-16 14:15:00,
2013-09-16 10:20:00,58.8,54.3,30.11,WNW,288,1.0,1.0,85,0.00,,,0.04,Wunderground v.1.15,2013-09-16 14:20:00,
2013-09-16 10:25:00,59.1,54.6,30.11,WNW,288,0.0,1.0,85,0.00,,,0.04,Wunderground v.1.15,2013-09-16 14:25:00,
2013-09-16 10:30:00,59.3,54.1,30.11,NW,319,0.0,1.0,83,0.00,,,0.04,Wunderground v.1.15,2013-09-16 14:30:00,
2013-09-16 10:35:00,59.6,53.8,30.11,NW,325,1.0,1.0,81,0.00,,,0.04,Wunderground v.1.15,2013-09-16 14:35:00,
2013-09-16 10:40:00,60.1,53.9,30.11,WNW,297,1.0,5.0,80,0.00,,,0.04,Wunderground v.1.15,2013-09-16 14:40:00,
2013-09-16 10:45:00,60.7,53.1,30.11,WNW,284,2.0,5.0,76,0.00,,,0.04,Wunderground v.1.15,2013-09-16 14:45:00,
2013-09-16 10:50:00,60.9,53.3,30.11,West,279,2.0,2.0,76,0.00,,,0.04,Wunderground v.1.15,2013-09-16 14:50:00,
2013-09-16 10:55:00,60.8,53.5,30.11,NNE,19,1.0,2.0,77,0.00,,,0.04,Wunderground v.1.15,2013-09-16 14:55:00,
2013-09-16 11:00:00,60.7,53.4,30.11,WNW,296,1.0,1.0,77,0.00,,,0.04,Wunderground v.1.15,2013-09-16 15:00:00,
2013-09-16 11:05:00,60.7,52.4,30.11,NW,312,2.0,2.0,74,0.00,,,0.04,Wunderground v.1.15,2013-09-16 15:05:00,
2013-09-16 11:10:00,61.0,53.4,30.11,West,273,2.0,2.0,76,0.00,,,0.04,Wunderground v.1.15,2013-09-16 15:10:00,
2013-09-16 11:15:00,61.0,53.4,30.11,WNW,288,1.0,2.0,76,0.00,,,0.04,Wunderground v.1.15,2013-09-16 15:15:00,
2013-09-16 11:20:00,61.1,53.5,30.11,NW,308,2.0,8.0,76,0.00,,,0.04,Wunderground v.1.15,2013-09-16 15:20:00,
2013-09-16 11:25:00,61.3,53.3,30.11,WNW,292,4.0,8.0,75,0.00,,,0.04,Wunderground v.1.15,2013-09-16 15:25:00,
2013-09-16 11:30:00,61.5,53.5,30.11,NW,310,3.0,3.0,75,0.00,,,0.04,Wunderground v.1.15,2013-09-16 15:30:00,
2013-09-16 11:35:00,61.7,53.7,30.11,WNW,284,2.0,3.0,75,0.00,,,0.04,Wunderground v.1.15,2013-09-16 15:35:00,
2013-09-16 11:40:00,61.8,54.2,30.11,WNW,301,2.0,4.0,76,0.00,,,0.04,Wunderground v.1.15,2013-09-16 15:40:00,
2013-09-16 11:45:00,62.0,54.0,30.11,WNW,303,2.0,4.0,75,0.00,,,0.04,Wunderground v.1.15,2013-09-16 15:45:00,
2013-09-16 11:50:00,61.8,53.8,30.11,WSW,256,2.0,4.0,75,0.00,,,0.04,Wunderground v.1.15,2013-09-16 15:50:00,
2013-09-16 11:55:00,62.3,54.3,30.11,WNW,286,3.0,5.0,75,0.00,,,0.04,Wunderground v.1.15,2013-09-16 15:55:00,
2013-09-16 12:00:00,62.7,53.9,30.11,NW,309,4.0,4.0,73,0.00,,,0.04,Wunderground v.1.15,2013-09-16 16:00:00,
2013-09-16 12:05:00,62.6,54.2,30.11,WNW,302,3.0,5.0,74,0.00,,,0.04,Wunderground v.1.15,2013-09-16 16:05:00,
2013-09-16 12:10:00,62.3,53.5,30.11,WNW,287,3.0,4.0,73,0.00,,,0.04,Wunderground v.1.15,2013-09-16 16:10:00,
2013-09-16 12:15:00,62.5,53.7,30.11,WNW,299,3.0,5.0,73,0.00,,,0.04,Wunderground v.1.15,2013-09-16 16:15:00,
2013-09-16 12:20:00,63.1,54.7,30.11,WSW,252,3.0,5.0,74,0.00,,,0.04,Wunderground v.1.15,2013-09-16 16:20:00,
2013-09-16 12:25:00,63.6,54.8,30.11,WNW,293,3.0,5.0,73,0.00,,,0.04,Wunderground v.1.15,2013-09-16 16:25:00,
2013-09-16 12:30:00,63.7,54.5,30.10,WNW,303,3.0,3.0,72,0.00,,,0.04,Wunderground v.1.15,2013-09-16 16:30:00,
2013-09-16 12:35:00,63.5,53.9,30.10,West,270,3.0,4.0,71,0.00,,,0.04,Wunderground v.1.15,2013-09-16 16:35:00,
2013-09-16 12:40:00,63.1,53.9,30.11,WNW,282,2.0,8.0,72,0.00,,,0.04,Wunderground v.1.15,2013-09-16 16:40:00,
2013-09-16 12:45:00,62.9,54.5,30.11,NW,307,2.0,8.0,74,0.00,,,0.04,Wunderground v.1.15,2013-09-16 16:45:00,
2013-09-16 12:50:00,62.9,54.9,30.11,NNW,338,1.0,2.0,75,0.00,,,0.04,Wunderground v.1.15,2013-09-16 16:50:00,
2013-09-16 12:55:00,62.9,54.5,30.11,NW,315,1.0,2.0,74,0.00,,,0.04,Wunderground v.1.15,2013-09-16 16:55:00,
2013-09-16 13:00:00,62.8,53.3,30.11,WNW,285,2.0,6.0,71,0.00,,,0.04,Wunderground v.1.15,2013-09-16 17:00:00,
2013-09-16 13:05:00,62.8,54.8,30.11,NE,55,3.0,6.0,75,0.00,,,0.04,Wunderground v.1.15,2013-09-16 17:05:00,
2013-09-16 13:10:00,62.9,54.5,30.11,North,360,2.0,2.0,74,0.00,,,0.04,Wunderground v.1.15,2013-09-16 17:10:00,
2013-09-16 13:15:00,62.7,53.9,30.11,WNW,296,1.0,3.0,73,0.00,,,0.04,Wunderground v.1.15,2013-09-16 17:15:00,
2013-09-16 13:20:00,62.5,54.5,30.11,NW,304,1.0,2.0,75,0.00,,,0.04,Wunderground v.1.15,2013-09-16 17:20:00,
2013-09-16 13:25:00,62.6,54.9,30.11,WNW,296,1.0,3.0,76,0.00,,,0.04,Wunderground v.1.15,2013-09-16 17:25:00,
2013-09-16 13:30:00,62.8,53.6,30.11,WNW,286,2.0,9.0,72,0.00,,,0.04,Wunderground v.1.15,2013-09-16 17:30:00,
2013-09-16 13:35:00,62.8,53.3,30.11,WNW,294,4.0,9.0,71,0.00,,,0.04,Wunderground v.1.15,2013-09-16 17:35:00,
2013-09-16 13:40:00,62.7,53.5,30.11,NW,305,4.0,6.0,72,0.00,,,0.04,Wunderground v.1.15,2013-09-16 17:40:00,
2013-09-16 13:45:00,62.7,53.9,30.11,NW,307,3.0,6.0,73,0.00,,,0.04,Wunderground v.1.15,2013-09-16 17:45:00,
2013-09-16 13:50:00,62.9,54.5,30.11,NW,316,3.0,6.0,74,0.00,,,0.04,Wunderground v.1.15,2013-09-16 17:50:00,
2013-09-16 13:55:00,63.0,54.6,30.11,WNW,294,3.0,6.0,74,0.00,,,0.04,Wunderground v.1.15,2013-09-16 17:55:00,
2013-09-16 14:00:00,62.8,52.9,30.11,NW,317,3.0,5.0,70,0.00,,,0.04,Wunderground v.1.15,2013-09-16 18:00:00,
2013-09-16 14:05:00,62.7,52.8,30.11,North,351,4.0,5.0,70,0.00,,,0.04,Wunderground v.1.15,2013-09-16 18:05:00,
2013-09-16 14:10:00,62.2,52.7,30.11,WNW,290,5.0,5.0,71,0.00,,,0.04,Wunderground v.1.15,2013-09-16 18:10:00,
2013-09-16 14:15:00,61.7,53.0,30.11,NW,304,4.0,5.0,73,0.00,,,0.04,Wunderground v.1.15,2013-09-16 18:15:00,
2013-09-16 14:20:00,61.5,53.1,30.11,WNW,295,3.0,6.0,74,0.00,,,0.04,Wunderground v.1.15,2013-09-16 18:20:00,
2013-09-16 14:25:00,61.6,53.2,30.11,NNW,331,4.0,6.0,74,0.00,,,0.04,Wunderground v.1.15,2013-09-16 18:25:00,
2013-09-16 14:30:00,62.4,54.0,30.11,NNW,337,4.0,10.0,74,0.00,,,0.04,Wunderground v.1.15,2013-09-16 18:30:00,
2013-09-16 14:35:00,62.6,54.2,30.11,West,259,4.0,10.0,74,0.00,,,0.04,Wunderground v.1.15,2013-09-16 18:35:00,
2013-09-16 14:40:00,62.5,54.1,30.11,WNW,282,2.0,2.0,74,0.00,,,0.04,Wunderground v.1.15,2013-09-16 18:40:00,
2013-09-16 14:45:00,63.1,54.7,30.11,WNW,301,2.0,6.0,74,0.00,,,0.04,Wunderground v.1.15,2013-09-16 18:45:00,
2013-09-16 14:50:00,63.2,53.3,30.11,WNW,284,3.0,6.0,70,0.00,,,0.04,Wunderground v.1.15,2013-09-16 18:50:00,
2013-09-16 14:55:00,62.8,53.3,30.11,WNW,292,4.0,6.0,71,0.00,,,0.04,Wunderground v.1.15,2013-09-16 18:55:00,
2013-09-16 15:00:00,62.5,53.0,30.11,WNW,282,3.0,3.0,71,0.00,,,0.04,Wunderground v.1.15,2013-09-16 19:00:00,
2013-09-16 15:05:00,62.3,53.2,30.11,NNW,329,3.0,3.0,72,0.00,,,0.04,Wunderground v.1.15,2013-09-16 19:05:00,
2013-09-16 15:10:00,62.3,53.9,30.11,NW,306,2.0,4.0,74,0.00,,,0.04,Wunderground v.1.15,2013-09-16 19:10:00,
2013-09-16 15:15:00,62.3,53.5,30.11,West,273,2.0,4.0,73,0.00,,,0.04,Wunderground v.1.15,2013-09-16 19:15:00,
2013-09-16 15:20:00,62.1,53.3,30.11,WNW,288,2.0,2.0,73,0.00,,,0.04,Wunderground v.1.15,2013-09-16 19:20:00,
2013-09-16 15:25:00,62.2,53.4,30.11,NW,304,2.0,2.0,73,0.00,,,0.04,Wunderground v.1.15,2013-09-16 19:25:00,
2013-09-16 15:30:00,62.2,53.1,30.11,NW,310,2.0,3.0,72,0.00,,,0.04,Wunderground v.1.15,2013-09-16 19:30:00,
2013-09-16 15:40:00,63.6,54.0,30.10,WNW,290,3.0,6.0,71,0.00,,,0.04,Wunderground v.1.15,2013-09-16 19:40:00,
2013-09-16 15:45:00,64.6,54.2,30.10,WNW,296,4.0,7.0,69,0.00,,,0.04,Wunderground v.1.15,2013-09-16 19:45:00,
2013-09-16 15:50:00,65.4,55.4,30.11,West,275,3.0,3.0,70,0.00,,,0.04,Wunderground v.1.15,2013-09-16 19:50:00,
2013-09-16 15:55:00,66.0,54.7,30.10,NW,311,3.0,3.0,67,0.00,,,0.04,Wunderground v.1.15,2013-09-16 19:55:00,
2013-09-16 16:00:00,65.9,54.6,30.10,WNW,286,3.0,3.0,67,0.00,,,0.04,Wunderground v.1.15,2013-09-16 20:00:00,
2013-09-16 16:05:00,65.4,54.6,30.10,WNW,287,2.0,7.0,68,0.00,,,0.04,Wunderground v.1.15,2013-09-16 20:05:00,
2013-09-16 16:10:00,64.6,53.0,30.11,WNW,286,2.0,4.0,66,0.00,,,0.04,Wunderground v.1.15,2013-09-16 20:10:00,
2013-09-16 16:20:00,63.7,53.3,30.11,NW,308,3.0,3.0,69,0.00,,,0.04,Wunderground v.1.15,2013-09-16 20:20:00,
2013-09-16 16:25:00,63.5,54.3,30.12,ENE,69,0.0,3.0,72,0.00,,,0.04,Wunderground v.1.15,2013-09-16 20:25:00,
2013-09-16 16:30:00,62.9,54.5,30.12,ENE,73,0.0,0.0,74,0.00,,,0.04,Wunderground v.1.15,2013-09-16 20:30:00,
2013-09-16 16:35:00,62.0,54.3,30.12,NW,323,0.0,0.0,76,0.00,,,0.04,Wunderground v.1.15,2013-09-16 20:35:00,
2013-09-16 16:40:00,61.2,53.9,30.12,ENE,77,0.0,0.0,77,0.00,,,0.04,Wunderground v.1.15,2013-09-16 20:40:00,
2013-09-16 16:45:00,60.2,53.3,30.13,ENE,69,0.0,1.0,78,0.00,,,0.04,Wunderground v.1.15,2013-09-16 20:45:00,
2013-09-16 16:50:00,59.3,53.1,30.13,NNE,23,1.0,1.0,80,0.00,,,0.04,Wunderground v.1.15,2013-09-16 20:50:00,
2013-09-16 16:55:00,58.6,52.4,30.13,NNE,29,1.0,1.0,80,0.00,,,0.04,Wunderground v.1.15,2013-09-16 20:55:00,
2013-09-16 17:00:00,58.1,52.6,30.13,ENE,71,1.0,1.0,82,0.00,,,0.04,Wunderground v.1.15,2013-09-16 21:00:00,
2013-09-16 17:05:00,57.6,52.1,30.13,ENE,74,1.0,1.0,82,0.00,,,0.04,Wunderground v.1.15,2013-09-16 21:05:00,
2013-09-16 17:10:00,57.2,52.1,30.13,ENE,69,0.0,0.0,83,0.00,,,0.04,Wunderground v.1.15,2013-09-16 21:10:00,
2013-09-16 17:15:00,56.7,51.6,30.14,East,96,1.0,1.0,83,0.00,,,0.04,Wunderground v.1.15,2013-09-16 21:15:00,
2013-09-16 17:20:00,56.3,51.2,30.14,ENE,61,1.0,1.0,83,0.00,,,0.04,Wunderground v.1.15,2013-09-16 21:20:00,
2013-09-16 17:25:00,56.2,51.4,30.14,NNE,19,0.0,1.0,84,0.00,,,0.04,Wunderground v.1.15,2013-09-16 21:25:00,
2013-09-16 17:30:00,56.0,51.2,30.14,NE,46,0.0,0.0,84,0.00,,,0.04,Wunderground v.1.15,2013-09-16 21:30:00,
2013-09-16 17:40:00,55.2,50.4,30.15,ENE,76,1.0,1.0,84,0.00,,,0.04,Wunderground v.1.15,2013-09-16 21:40:00,
2013-09-16 17:45:00,54.9,50.5,30.16,NE,48,1.0,1.0,85,0.00,,,0.04,Wunderground v.1.15,2013-09-16 21:45:00,
2013-09-16 17:50:00,54.7,50.3,30.16,NE,40,0.0,1.0,85,0.00,,,0.04,Wunderground v.1.15,2013-09-16 21:50:00,
2013-09-16 17:55:00,54.4,50.0,30.16,ENE,64,0.0,1.0,85,0.00,,,0.04,Wunderground v.1.15,2013-09-16 21:55:00,
2013-09-16 18:00:00,54.3,50.2,30.16,ENE,69,0.0,1.0,86,0.00,,,0.04,Wunderground v.1.15,2013-09-16 22:00:00,
2013-09-16 18:05:00,54.0,49.6,30.17,ENE,77,1.0,1.0,85,0.00,,,0.04,Wunderground v.1.15,2013-09-16 22:05:00,
2013-09-16 18:10:00,53.8,49.7,30.17,NNE,25,0.0,0.0,86,0.00,,,0.04,Wunderground v.1.15,2013-09-16 22:10:00,
2013-09-16 18:20:00,53.6,49.5,30.17,NNW,338,0.0,0.0,86,0.00,,,0.04,Wunderground v.1.15,2013-09-16 22:20:00,
2013-09-16 18:25:00,53.5,49.4,30.17,NE,55,0.0,0.0,86,0.00,,,0.04,Wunderground v.1.15,2013-09-16 22:25:00,
2013-09-16 18:30:00,53.4,49.6,30.18,NNE,19,0.0,0.0,87,0.00,,,0.04,Wunderground v.1.15,2013-09-16 22:30:00,
2013-09-16 18:35:00,53.3,49.5,30.18,NNE,22,0.0,0.0,87,0.00,,,0.04,Wunderground v.1.15,2013-09-16 22:35:00,
2013-09-16 18:40:00,53.2,49.4,30.18,NE,46,0.0,0.0,87,0.00,,,0.04,Wunderground v.1.15,2013-09-16 22:40:00,
2013-09-16 18:45:00,53.1,49.3,30.19,NNE,17,0.0,0.0,87,0.00,,,0.04,Wunderground v.1.15,2013-09-16 22:45:00,
2013-09-16 18:50:00,53.0,49.2,30.19,NNE,13,0.0,0.0,87,0.00,,,0.04,Wunderground v.1.15,2013-09-16 22:50:00,
2013-09-16 18:55:00,52.9,49.1,30.19,NNE,15,0.0,0.0,87,0.00,,,0.04,Wunderground v.1.15,2013-09-16 22:55:00,
2013-09-16 19:00:00,52.7,48.9,30.19,NNE,17,0.0,0.0,87,0.00,,,0.04,Wunderground v.1.15,2013-09-16 23:00:00,
2013-09-16 19:05:00,52.6,48.8,30.19,NW,317,0.0,0.0,87,0.00,,,0.04,Wunderground v.1.15,2013-09-16 23:05:00,
2013-09-16 19:10:00,52.5,48.7,30.20,NE,38,0.0,0.0,87,0.00,,,0.04,Wunderground v.1.15,2013-09-16 23:10:00,
2013-09-16 19:15:00,52.3,48.5,30.20,ENE,57,0.0,0.0,87,0.00,,,0.04,Wunderground v.1.15,2013-09-16 23:15:00,
2013-09-16 19:20:00,52.2,48.4,30.20,North,350,0.0,0.0,87,0.00,,,0.04,Wunderground v.1.15,2013-09-16 23:20:00,
2013-09-16 19:25:00,52.1,48.7,30.21,NNE,19,0.0,0.0,88,0.00,,,0.04,Wunderground v.1.15,2013-09-16 23:25:00,
2013-09-16 19:30:00,52.0,48.6,30.21,North,355,0.0,0.0,88,0.00,,,0.04,Wunderground v.1.15,2013-09-16 23:30:00,
2013-09-16 19:35:00,51.9,48.5,30.21,North,360,0.0,0.0,88,0.00,,,0.04,Wunderground v.1.15,2013-09-16 23:35:00,
2013-09-16 19:40:00,51.9,48.5,30.22,NNE,28,0.0,0.0,88,0.00,,,0.04,Wunderground v.1.15,2013-09-16 23:40:00,
2013-09-16 19:50:00,51.7,48.6,30.22,NNE,28,0.0,0.0,89,0.00,,,0.04,Wunderground v.1.15,2013-09-16 23:50:00,
2013-09-16 19:55:00,51.7,48.6,30.22,NNE,28,0.0,0.0,89,0.00,,,0.04,Wunderground v.1.15,2013-09-16 23:55:00,
2013-09-16 20:00:00,51.7,48.6,30.23,NNE,28,0.0,0.0,89,0.00,,,0.04,Wunderground v.1.15,2013-09-17 00:00:00,
2013-09-16 20:05:00,51.7,48.6,30.23,NNW,338,0.0,0.0,89,0.00,,,0.04,Wunderground v.1.15,2013-09-17 00:05:00,
2013-09-16 20:10:00,51.6,48.5,30.24,NNW,338,0.0,0.0,89,0.00,,,0.04,Wunderground v.1.15,2013-09-17 00:10:00,
2013-09-16 20:15:00,51.5,48.1,30.24,North,355,0.0,0.0,88,0.00,,,0.04,Wunderground v.1.15,2013-09-17 00:15:00,
2013-09-16 20:25:00,51.2,47.5,30.24,NNE,27,0.0,0.0,87,0.00,,,0.04,Wunderground v.1.15,2013-09-17 00:25:00,
2013-09-16 20:30:00,51.1,47.4,30.25,North,355,0.0,0.0,87,0.00,,,0.04,Wunderground v.1.15,2013-09-17 00:30:00,
2013-09-16 20:35:00,50.9,47.2,30.25,NE,42,0.0,0.0,87,0.00,,,0.04,Wunderground v.1.15,2013-09-17 00:35:00,
2013-09-16 20:40:00,50.9,46.9,30.25,NW,307,0.0,0.0,86,0.00,,,0.04,Wunderground v.1.15,2013-09-17 00:40:00,
2013-09-16 20:45:00,50.8,46.5,30.26,NNE,29,0.0,1.0,85,0.00,,,0.04,Wunderground v.1.15,2013-09-17 00:45:00,
2013-09-16 20:50:00,50.7,46.0,30.26,NW,325,0.0,0.0,84,0.00,,,0.04,Wunderground v.1.15,2013-09-17 00:50:00,
2013-09-16 20:55:00,50.6,45.6,30.26,NNW,340,0.0,0.0,83,0.00,,,0.04,Wunderground v.1.15,2013-09-17 00:55:00,
2013-09-16 21:00:00,50.6,45.3,30.26,ENE,76,0.0,0.0,82,0.00,,,0.04,Wunderground v.1.15,2013-09-17 01:00:00,
2013-09-16 21:05:00,50.4,45.1,30.27,North,360,0.0,0.0,82,0.00,,,0.04,Wunderground v.1.15,2013-09-17 01:05:00,
2013-09-16 21:10:00,50.4,45.1,30.27,NNW,346,0.0,0.0,82,0.00,,,0.04,Wunderground v.1.15,2013-09-17 01:10:00,
2013-09-16 21:15:00,50.2,44.3,30.27,NE,42,0.0,0.0,80,0.00,,,0.04,Wunderground v.1.15,2013-09-17 01:15:00,
2013-09-16 21:20:00,50.1,44.5,30.27,NNW,329,0.0,0.0,81,0.00,,,0.04,Wunderground v.1.15,2013-09-17 01:20:00,
2013-09-16 21:25:00,49.9,44.3,30.27,NNE,23,0.0,0.0,81,0.00,,,0.04,Wunderground v.1.15,2013-09-17 01:25:00,
2013-09-16 21:30:00,49.7,44.4,30.27,NNE,14,0.0,0.0,82,0.00,,,0.04,Wunderground v.1.15,2013-09-17 01:30:00,
2013-09-16 21:35:00,49.6,44.3,30.28,NE,41,0.0,0.0,82,0.00,,,0.04,Wunderground v.1.15,2013-09-17 01:35:00,
2013-09-16 21:40:00,49.4,44.1,30.28,NNE,16,0.0,0.0,82,0.00,,,0.04,Wunderground v.1.15,2013-09-17 01:40:00,
2013-09-16 21:45:00,49.2,43.3,30.28,North,5,0.0,0.0,80,0.00,,,0.04,Wunderground v.1.15,2013-09-17 01:45:00,
2013-09-16 21:50:00,49.1,43.5,30.28,North,355,0.0,4.0,81,0.00,,,0.04,Wunderground v.1.15,2013-09-17 01:50:00,
2013-09-16 21:55:00,48.9,43.0,30.29,NNE,22,0.0,4.0,80,0.00,,,0.04,Wunderground v.1.15,2013-09-17 01:55:00,
2013-09-16 22:00:00,48.8,42.6,30.29,NNE,14,1.0,1.0,79,0.00,,,0.04,Wunderground v.1.15,2013-09-17 02:00:00,
2013-09-16 22:05:00,48.6,42.7,30.29,NNE,30,0.0,1.0,80,0.00,,,0.04,Wunderground v.1.15,2013-09-17 02:05:00,
2013-09-16 22:10:00,48.5,42.3,30.30,NE,36,0.0,0.0,79,0.00,,,0.04,Wunderground v.1.15,2013-09-17 02:10:00,
2013-09-16 22:20:00,48.3,42.1,30.30,NE,51,0.0,0.0,79,0.00,,,0.04,Wunderground v.1.15,2013-09-17 02:20:00,
2013-09-16 22:25:00,48.1,42.2,30.30,NNW,334,0.0,0.0,80,0.00,,,0.04,Wunderground v.1.15,2013-09-17 02:25:00,
2013-09-16 22:30:00,47.9,41.7,30.30,NE,48,0.0,2.0,79,0.00,,,0.04,Wunderground v.1.15,2013-09-17 02:30:00,
2013-09-16 22:35:00,47.8,41.9,30.30,North,351,0.0,2.0,80,0.00,,,0.04,Wunderground v.1.15,2013-09-17 02:35:00,
2013-09-16 22:40:00,47.6,41.7,30.31,NE,55,0.0,0.0,80,0.00,,,0.04,Wunderground v.1.15,2013-09-17 02:40:00,
2013-09-16 22:45:00,47.6,42.1,30.31,NW,325,0.0,0.0,81,0.00,,,0.04,Wunderground v.1.15,2013-09-17 02:45:00,
2013-09-16 22:55:00,47.5,42.0,30.31,North,349,0.0,0.0,81,0.00,,,0.04,Wunderground v.1.15,2013-09-17 02:55:00,
2013-09-16 23:00:00,47.5,41.6,30.32,North,350,0.0,1.0,80,0.00,,,0.04,Wunderground v.1.15,2013-09-17 03:00:00,
2013-09-16 23:05:00,47.5,41.3,30.32,NNE,26,0.0,1.0,79,0.00,,,0.04,Wunderground v.1.15,2013-09-17 03:05:00,
2013-09-16 23:10:00,47.5,41.6,30.32,NNE,26,0.0,0.0,80,0.00,,,0.04,Wunderground v.1.15,2013-09-17 03:10:00,
2013-09-16 23:15:00,47.5,42.0,30.32,NNE,26,0.0,0.0,81,0.00,,,0.04,Wunderground v.1.15,2013-09-17 03:15:00,
2013-09-16 23:20:00,47.5,41.6,30.33,NW,306,0.0,0.0,80,0.00,,,0.04,Wunderground v.1.15,2013-09-17 03:20:00,
2013-09-16 23:30:00,47.3,41.4,30.33,NW,325,0.0,0.0,80,0.00,,,0.04,Wunderground v.1.15,2013-09-17 03:30:00,
2013-09-16 23:35:00,47.2,41.3,30.33,NW,325,0.0,0.0,80,0.00,,,0.04,Wunderground v.1.15,2013-09-17 03:35:00,
2013-09-16 23:40:00,47.0,41.5,30.33,NW,326,0.0,0.0,81,0.00,,,0.04,Wunderground v.1.15,2013-09-17 03:40:00,
2013-09-16 23:45:00,46.8,41.6,30.33,NNW,347,0.0,0.0,82,0.00,,,0.04,Wunderground v.1.15,2013-09-17 03:45:00,
2013-09-16 23:50:00,46.7,41.5,30.33,NE,38,0.0,0.0,82,0.00,,,0.04,Wunderground v.1.15,2013-09-17 03:50:00,
2013-09-16 23:55:00,46.5,41.6,30.33,NW,323,0.0,0.0,83,0.00,,,0.04,Wunderground v.1.15,2013-09-17 03:55:00,